Regional Weather Roundup
Issued by NWS

Home | Current Version | Previous Version | Text Only | Print | Product List | Glossary Off
Versions: 1 2 3 4 5 6 7 8 9 10 11 12 13 14 15 16 17 18 19 20 21 22 23 24 25 26 27 28 29 30 31 32 33 34 35 36 37 38 39 40 41 42 43 44 45 46 47 48 49 50

000
ASUS43 KLOT 291103
RWRIL

ILLINOIS REGIONAL WEATHER ROUNDUP
NATIONAL WEATHER SERVICE CHICAGO/ROMEOVILLE IL
600 AM CDT SUN MAY 29 2016

NOTE: "FAIR" INDICATES FEW OR NO CLOUDS BELOW 12,000 FEET WITH NO
SIGNIFICANT WEATHER AND/OR OBSTRUCTIONS TO VISIBILITY.

* THESE STATIONS ARE NOT UNDER NWS QUALITY CONTROL. THEY ALSO MAY NOT
  REPORT WEATHER SUCH AS PRECIPITATION OR FOG.

ILZ001-002-007-009-015-016-024-291200-
NORTHWEST ILLINOIS

CITY           SKY/WX    TMP DP  RH WIND       PRES   REMARKS
MOLINE         CLEAR     66  58  75 SW10      29.95R
STERLING*      CLEAR     65  60  84 VRB6      29.95R
$$

ILZ003-004-008-010-011-017-018-291200-
NORTH CENTRAL ILLINOIS

CITY           SKY/WX    TMP DP  RH WIND       PRES   REMARKS
ROCKFORD       CLEAR     64  60  87 S7        29.97R
FREEPORT*      CLEAR     62  59  89 SW9       29.95R
ROCHELLE*      CLEAR     63  61  92 S12       29.96R
$$

ILZ005-006-012>014-019>023-291200-
NORTHEAST ILLINOIS

CITY           SKY/WX    TMP DP  RH WIND       PRES   REMARKS
CHICAGO-OHARE  PTCLDY    64  61  90 SW8       29.97R
CHICAGO-MIDWAY PTCLDY    65  60  84 SW8       29.98R
AURORA         CLEAR     64  61  90 S9        29.98R
LANSING*       CLEAR     63  59  87 SW7       30.00R
WAUKEGAN       PTCLDY    63  61  93 S8        29.95R
DUPAGE AIRPORT CLEAR     61  59  93 S6        29.97R
WHEELING       CLEAR     64  61  90 S7        29.98R
NORTHERLY ISL    N/A     66  59  78 S6          N/A
NORTHERLY ISL    N/A     66  59  78 S6          N/A
$$

LMZ740>746-291200-
SOUTHERN LAKE MICHIGAN

STATION/POSITION SKY/WX   TEMP    WIND        PRES    VSBY  WAVE
                          AIR SEA DIR/SP/G                  HT/PER
                          (F)     (DEG/KT/KT) (MB)    (MI)  (FT/S)
SOUTHERN BUOY              56 50  190/ 12/ 14 1013.6          1/ 4
WILMETTE HARBOR            59 52  230/  8/  8   N/A           1/ 2
HARRISON CRIB              67     210/ 14/ 15   N/A
BURNHAM HARBOR             65     200/  4/  7   N/A
CALUMET HARBOR             65     200/  6/  8 1014.4R
BURNS HARBOR               66     190/ 11/ 16 1015.6R
MICHIGAN CITY              67     170/ 13/ 17   N/A
MICHIGAN CITY 6N           63 56  210/ 10/ 12   N/A           1/ 2
ST. JOSEPH                 64 61  160/  8/  8   N/A           1
$$

ILZ025>027-034>036-040-047-049-050-058-095>099-291200-
WEST-CENTRAL ILLINOIS

CITY           SKY/WX    TMP DP  RH WIND       PRES   REMARKS
QUINCY         CLEAR     61  59  93 SW6       30.02R
MACOMB*        CLEAR     64  59  83 W10       30.03R
PITTSFIELD*    CLEAR     66  62  87 SW5       30.04S
$$

ILZ028>032-037-038-041>044-048-051>054-059>061-291200-
CENTRAL ILLINOIS

CITY           SKY/WX    TMP DP  RH WIND       PRES   REMARKS
BLOOMINGTON    CLEAR     62  62 100 VRB7      30.04R
DECATUR        CLEAR     66  63  90 SW6       30.04R
PEORIA         CLEAR     64  61  90 S8        30.00R
SPRINGFIELD    CLEAR     66  63  90 SW3       30.04R
TAYLORVILLE    NOT AVBL
$$

ILZ033-039-045-046-055>057-062-063-291200-
EAST-CENTRAL ILLINOIS

CITY           SKY/WX    TMP DP  RH WIND       PRES   REMARKS
CHAMPAIGN      CLEAR     65  64  97 S8        30.05R FOG
MATTOON          N/A     68  64  87 SW6       30.05R
$$

ILZ079-100>102-291200-
SOUTHWEST ILLINOIS

CITY           SKY/WX    TMP DP  RH WIND       PRES   REMARKS
CAHOKIA*       CLEAR     64  62  93 CALM      30.05R
SPARTA*        CLEAR     67  66  94 CALM      30.07R
$$

ILZ064>066-069>071-074>076-080>082-084>086-088>090-092>094-291200-
SOUTH-CENTRAL ILLINOIS

CITY           SKY/WX    TMP DP  RH WIND       PRES   REMARKS
CARBONDALE     FOG       65  64  97 CALM      30.06R VSB<1/4
EFFINGHAM*     FOG       65  65 100 CALM      30.07R VSB 1/2
MT. VERNON     CLOUDY    61  55  82 CALM      30.07S VSB 1/4
SALEM*         CLEAR     68  67  94 CALM      30.06S FOG
$$

ILZ067-068-072-073-078-083-087-091-291200-
SOUTHEAST ILLINOIS

CITY           SKY/WX    TMP DP  RH WIND       PRES   REMARKS
LAWRENCEVILLE  CLEAR     68  67  96 S8        30.07R FOG
FLORA*         FOG       65  65  97 S3        30.07R VSB 1/4
HARRISBURG*    MOCLDY    65  65 100 CALM      30.08R FOG
ROBINSON*      CLEAR     65  65  99 S7        30.07R FOG
$$

ABBREVIATIONS USED IN REMARKS
   TC - TEMPERATURE IN CELSIUS
  WCI - WIND CHILL INDEX
   HX - HEAT INDEX
  VSB - VISIBILITY
$$





USA.gov is the U.S. government's official web portal to all federal, state and local government web resources and services.